When you browse on this site, cookies collect data to enhance your experience and personalize the content and advertising you see.
Visit our Privacy Policy to learn more. By continuing to use the site, you agree to this use of cookies and data.
  • en Suisse
  • Liste des pays
  • À 7 jours
  • Température de l'eau
  • Carte météo
  • Widgets météo
  • user-avatar
    Se connecter

    Météo par heure à Malanje

    Ce jour, 3 Juin, Mercredi

    Heure Température Précipitation Vent Pression Humidité
    00:00 +20°C° 0 mm 1 m/s 666 mmHg 54%
    01:00 +20°C° 0 mm 1 m/s 666 mmHg 55%
    02:00 +19°C° 0 mm 1 m/s 665 mmHg 58%
    03:00 +18°C° 0 mm 1 m/s 665 mmHg 60%
    04:00 +16°C° 0 mm 1 m/s 665 mmHg 62%
    05:00 +16°C° 0 mm 1 m/s 665 mmHg 62%
    06:00 +16°C° 0 mm 1 m/s 666 mmHg 61%
    07:00 +18°C° 0 mm 1 m/s 666 mmHg 60%
    08:00 +21°C° 0 mm 1 m/s 667 mmHg 52%
    09:00 +24°C° 0 mm 2 m/s 667 mmHg 45%
    10:00 +27°C° 0 mm 2 m/s 668 mmHg 38%
    11:00 +29°C° 0 mm 2 m/s 668 mmHg 35%
    12:00 +31°C° 0 mm 1 m/s 668 mmHg 32%
    13:00 +33°C° 0 mm 1 m/s 667 mmHg 29%
    14:00 +32°C° 0 mm 1 m/s 667 mmHg 31%
    15:00 +31°C° 0 mm 1 m/s 666 mmHg 33%
    16:00 +28°C° 0 mm 0 m/s 665 mmHg 35%
    17:00 +26°C° 0 mm 0 m/s 665 mmHg 38%
    18:00 +25°C° 0 mm 0 m/s 666 mmHg 40%
    19:00 +23°C° 0 mm 0 m/s 666 mmHg 43%
    20:00 +23°C° 0 mm 0 m/s 666 mmHg 45%
    21:00 +24°C° 0 mm 1 m/s 666 mmHg 47%
    22:00 +24°C° 0 mm 1 m/s 666 mmHg 49%
    23:00 +22°C° 0 mm 1 m/s 666 mmHg 60%

    Demain, 4 Juin, Jeudi

    Heure Température Précipitation Vent Pression Humidité
    00:00 +21°C° 0 mm 1 m/s 666 mmHg 70%
    01:00 +19°C° 0 mm 2 m/s 665 mmHg 81%
    02:00 +18°C° 0 mm 2 m/s 665 mmHg 86%
    03:00 +18°C° 0 mm 1 m/s 665 mmHg 91%
    04:00 +18°C° 0 mm 1 m/s 665 mmHg 96%
    05:00 +18°C° 0 mm 1 m/s 665 mmHg 94%
    06:00 +19°C° 0 mm 1 m/s 666 mmHg 92%
    07:00 +19°C° 0 mm 1 m/s 666 mmHg 90%
    08:00 +22°C° 0 mm 1 m/s 667 mmHg 75%
    09:00 +25°C° 0 mm 1 m/s 668 mmHg 61%
    10:00 +28°C° 0 mm 2 m/s 669 mmHg 46%
    11:00 +30°C° 0 mm 1 m/s 668 mmHg 41%
    12:00 +31°C° 0 mm 1 m/s 668 mmHg 35%
    13:00 +33°C° 0 mm 1 m/s 668 mmHg 29%
    14:00 +32°C° 0 mm 1 m/s 667 mmHg 32%
    15:00 +31°C° 0 mm 1 m/s 666 mmHg 34%
    16:00 +28°C° 0 mm 0 m/s 666 mmHg 36%
    17:00 +26°C° 0 mm 0 m/s 666 mmHg 40%
    18:00 +24°C° 0 mm 0 m/s 666 mmHg 43%
    19:00 +22°C° 0 mm 0 m/s 666 mmHg 47%
    20:00 +21°C° 0 mm 0 m/s 666 mmHg 51%
    21:00 +23°C° 0 mm 1 m/s 666 mmHg 54%
    22:00 +22°C° 0 mm 1 m/s 666 mmHg 57%
    23:00 +21°C° 0 mm 1 m/s 666 mmHg 64%

    Après-demain, 5 Juin, Vendredi

    Heure Température Précipitation Vent Pression Humidité
    00:00 +21°C° 0 mm 1 m/s 666 mmHg 71%
    01:00 +20°C° 0 mm 1 m/s 666 mmHg 78%
    02:00 +19°C° 0 mm 1 m/s 666 mmHg 82%
    03:00 +19°C° 0 mm 1 m/s 666 mmHg 86%
    04:00 +18°C° 0 mm 1 m/s 665 mmHg 91%
    05:00 +18°C° 0 mm 1 m/s 666 mmHg 88%
    06:00 +19°C° 0 mm 1 m/s 666 mmHg 86%
    07:00 +19°C° 0 mm 1 m/s 667 mmHg 84%
    08:00 +23°C° 0 mm 1 m/s 668 mmHg 69%
    09:00 +26°C° 0 mm 1 m/s 668 mmHg 55%
    10:00 +29°C° 0 mm 2 m/s 669 mmHg 40%
    11:00 +31°C° 0 mm 2 m/s 669 mmHg 36%
    12:00 +32°C° 0 mm 2 m/s 668 mmHg 31%
    13:00 +35°C° 0 mm 2 m/s 668 mmHg 27%
    14:00 +34°C° 0 mm 2 m/s 668 mmHg 27%
    15:00 +34°C° 0 mm 2 m/s 667 mmHg 28%
    16:00 +32°C° 0 mm 2 m/s 666 mmHg 28%
    17:00 +30°C° 0 mm 1 m/s 666 mmHg 33%
    18:00 +27°C° 0 mm 1 m/s 666 mmHg 38%
    19:00 +25°C° 0 mm 1 m/s 666 mmHg 43%
    20:00 +24°C° 0 mm 1 m/s 666 mmHg 46%
    21:00 +21°C° 0 mm 0 m/s 666 mmHg 49%
    22:00 +20°C° 0 mm 0 m/s 667 mmHg 52%
    23:00 +21°C° 0 mm 1 m/s 666 mmHg 57%

    6 Juin, Samedi

    Heure Température Précipitation Vent Pression Humidité
    00:00 +21°C° 0 mm 1 m/s 666 mmHg 63%
    01:00 +20°C° 0 mm 1 m/s 666 mmHg 69%
    02:00 +20°C° 0 mm 1 m/s 666 mmHg 70%
    03:00 +19°C° 0 mm 1 m/s 665 mmHg 71%
    04:00 +19°C° 0 mm 1 m/s 665 mmHg 72%
    05:00 +19°C° 0 mm 1 m/s 666 mmHg 68%
    06:00 +19°C° 0 mm 1 m/s 666 mmHg 65%
    07:00 +19°C° 0 mm 1 m/s 667 mmHg 61%
    08:00 +21°C° 0 mm 2 m/s 668 mmHg 53%
    09:00 +25°C° 0 mm 2 m/s 668 mmHg 44%
    10:00 +28°C° 0 mm 3 m/s 669 mmHg 36%
    11:00 +30°C° 0 mm 3 m/s 668 mmHg 32%
    12:00 +32°C° 0 mm 2 m/s 668 mmHg 29%
    13:00 +34°C° 0 mm 2 m/s 668 mmHg 25%
    14:00 +34°C° 0 mm 2 m/s 667 mmHg 25%
    15:00 +34°C° 0 mm 2 m/s 667 mmHg 25%
    16:00 +32°C° 0 mm 1 m/s 666 mmHg 25%
    17:00 +30°C° 0 mm 1 m/s 666 mmHg 30%
    18:00 +27°C° 0 mm 1 m/s 666 mmHg 35%
    19:00 +22°C° 0 mm 0 m/s 666 mmHg 40%
    20:00 +22°C° 0 mm 0 m/s 666 mmHg 43%
    21:00 +21°C° 0 mm 0 m/s 666 mmHg 45%
    22:00 +20°C° 0 mm 0 m/s 666 mmHg 47%
    23:00 +21°C° 0 mm 1 m/s 666 mmHg 54%

    7 Juin, Dimanche

    Heure Température Précipitation Vent Pression Humidité
    00:00 +21°C° 0 mm 1 m/s 666 mmHg 61%
    01:00 +20°C° 0 mm 1 m/s 666 mmHg 69%
    02:00 +19°C° 0 mm 1 m/s 665 mmHg 74%
    03:00 +18°C° 0 mm 1 m/s 665 mmHg 78%
    04:00 +18°C° 0 mm 1 m/s 665 mmHg 83%
    05:00 +18°C° 0 mm 1 m/s 666 mmHg 74%
    06:00 +17°C° 0 mm 2 m/s 666 mmHg 65%
    07:00 +17°C° 0 mm 2 m/s 666 mmHg 56%
    08:00 +20°C° 0 mm 2 m/s 667 mmHg 47%
    09:00 +24°C° 0 mm 3 m/s 668 mmHg 38%
    10:00 +28°C° 0 mm 4 m/s 669 mmHg 29%
    11:00 +29°C° 0 mm 3 m/s 668 mmHg 27%
    12:00 +31°C° 0 mm 3 m/s 668 mmHg 24%
    13:00 +32°C° 0 mm 2 m/s 667 mmHg 22%
    14:00 +32°C° 0 mm 2 m/s 667 mmHg 22%
    15:00 +32°C° 0 mm 2 m/s 667 mmHg 22%
    16:00 +31°C° 0 mm 2 m/s 666 mmHg 23%
    17:00 +28°C° 0 mm 1 m/s 666 mmHg 28%
    18:00 +25°C° 0 mm 1 m/s 666 mmHg 33%
    19:00 +23°C° 0 mm 1 m/s 665 mmHg 39%
    20:00 +22°C° 0 mm 1 m/s 666 mmHg 40%
    21:00 +19°C° 0 mm 0 m/s 666 mmHg 41%
    22:00 +19°C° 0 mm 0 m/s 666 mmHg 42%
    23:00 +18°C° 0 mm 0 m/s 666 mmHg 44%

    8 Juin, Lundi

    Heure Température Précipitation Vent Pression Humidité
    00:00 +19°C° 0 mm 1 m/s 665 mmHg 46%
    01:00 +18°C° 0 mm 1 m/s 665 mmHg 48%
    02:00 +18°C° 0 mm 1 m/s 665 mmHg 49%
    03:00 +16°C° 0 mm 1 m/s 665 mmHg 50%
    04:00 +16°C° 0 mm 1 m/s 665 mmHg 51%
    05:00 +16°C° 0 mm 1 m/s 665 mmHg 51%
    06:00 +16°C° 0 mm 2 m/s 665 mmHg 51%
    07:00 +16°C° 0 mm 2 m/s 666 mmHg 50%
    08:00 +19°C° 0 mm 2 m/s 667 mmHg 44%
    09:00 +22°C° 0 mm 3 m/s 667 mmHg 37%
    10:00 +26°C° 0 mm 3 m/s 668 mmHg 30%
    11:00 +28°C° 0 mm 3 m/s 667 mmHg 27%
    12:00 +30°C° 0 mm 3 m/s 667 mmHg 24%
    13:00 +32°C° 0 mm 2 m/s 667 mmHg 20%
    14:00 +31°C° 0 mm 2 m/s 666 mmHg 21%
    15:00 +31°C° 0 mm 2 m/s 666 mmHg 21%
    16:00 +30°C° 0 mm 2 m/s 665 mmHg 21%
    17:00 +28°C° 0 mm 2 m/s 665 mmHg 26%
    18:00 +25°C° 0 mm 1 m/s 665 mmHg 31%
    19:00 +22°C° 0 mm 1 m/s 664 mmHg 36%
    20:00 +21°C° 0 mm 1 m/s 665 mmHg 37%
    21:00 +21°C° 0 mm 1 m/s 665 mmHg 38%
    22:00 +18°C° 0 mm 0 m/s 665 mmHg 38%
    23:00 +19°C° 0 mm 1 m/s 665 mmHg 39%
    Voir plus